Regional Weather Roundup
Issued by NWS Sioux Falls, SD

Home | Current Version | Previous Version | Graphics & Text | Print | Product List | Glossary On
Versions: 1 2 3 4 5 6 7 8 9 10 11 12 13 14 15 16 17 18 19 20 21 22 23 24 25 26 27 28 29 30 31 32 33 34 35 36 37 38 39 40 41 42 43 44 45 46 47 48 49 50
000
ASUS43 KFSD 031810
RWRFSD

WEATHER ROUNDUP FOR SE SOUTH DAKOTA/SW MINNESOTA/NW IOWA
NATIONAL WEATHER SERVICE SIOUX FALLS SD
100 PM CDT SUN MAY 03 2015

NOTE: "FAIR" INDICATES FEW OR NO CLOUDS BELOW 12,000 FEET WITH NO
SIGNIFICANT WEATHER AND OR OBSTRUCTIONS TO VISIBILITY.


SDZ038>040-050-052>070-031900-
SOUTHEAST SOUTH DAKOTA

CITY           SKY/WX    TMP DP  RH WIND       PRES   REMARKS
BROOKINGS      CLOUDY    72  52  49 N20G26    29.84R
CHAMBERLAIN    PTSUNNY   70  36  29 NE21G31   29.87R
6HR MIN TEMP:  52; 6HR MAX TEMP:  70;

HURON          MOSUNNY   74  36  25 NE25G38   29.86R
6HR MIN TEMP:  50; 6HR MAX TEMP:  75;

MADISON        MOCLDY    75  54  46 NE17G25   29.81R
MITCHELL       MOSUNNY   77  52  41 NE25G35   29.82R
6HR MIN TEMP:  61; 6HR MAX TEMP:  81;

SIOUX FALLS    PTSUNNY   80  55  42 N6        29.78R
6HR MIN TEMP:  55; 6HR MAX TEMP:  80;

WINNER         FAIR      72  36  26 NE30G36   29.89R
YANKTON        MOSUNNY   77  55  47 N9        29.74S
$$

MNZ071-072-080-081-089-090-097-098-031900-
SOUTHWEST MINNESOTA

CITY           SKY/WX    TMP DP  RH WIND       PRES   REMARKS
FAIRMONT       MOSUNNY   81  52  36 SW8       29.78F
JACKSON        SUNNY     81  48  32 SW5       29.79S
LUVERNE        MOSUNNY   81  50  34 CALM      29.78S
MARSHALL       PTSUNNY   73  52  46 N14G21    29.80S
6HR MIN TEMP:  55; 6HR MAX TEMP:  73;

MONTEVIDEO     CLOUDY    73  54  49 NE18G24   29.81R
PIPESTONE      SUNNY     77  52  41 VRB7G16   29.79S
REDWOOD FALLS  SUNNY     77  56  48 NW8       29.77R
TRACY          SUNNY     78  55  44 N12G18    29.79R
WINDOM         SUNNY     81  50  34 CALM      29.78S
WORTHINGTON    SUNNY     79  54  41 S3        29.79S
$$

IAZ001>003-012>014-020>022-031-032-NEZ013-014-SDZ071-031900-
NORTHWEST IOWA

CITY           SKY/WX    TMP DP  RH WIND       PRES   REMARKS
CHEROKEE       SUNNY     80  58  46 SW5       29.75F
DENISON        SUNNY     79  61  53 S13G18    29.75S
ESTHERVILLE    SUNNY     79  53  40 VRB7      29.78S
LE MARS        SUNNY     81  55  41 CALM      29.75S
ORANGE CITY    MOSUNNY   79  54  41 E6        29.75F
SHELDON        MOSUNNY   79  59  50 VRB3      29.76S
SIOUX CITY     SUNNY     80  56  43 SE9       29.74S
6HR MIN TEMP:  58; 6HR MAX TEMP:  81;

SPENCER        SUNNY     81  55  40 N5        29.78S
6HR MIN TEMP:  50; 6HR MAX TEMP:  81;

STORM LAKE     SUNNY     79  55  44 VRB5      29.77F
$$

ABBREVIATIONS USED IN REMARKS
   TC - TEMPERATURE IN CELSIUS
  WCI - WIND CHILL INDEX
   HX - HEAT INDEX
  VSB - VISIBILITY



USA.gov is the U.S. government's official web portal to all federal, state and local government web resources and services.